Location: Hartford
(41.7640°N, 72.6860°W)
Time: 19:40:26
(UTC-04:00)

Amateur Radio Satellites - All Passes

Search period start: 03 July 2015 19:10
Search period end: 04 July 2015 19:10
Location: Hartford, 41.7640°N, 72.6860°W

Satellite Date Start Highest point End Downlink Frequencies (MHz)
Time Altitude Azimuth
HO-68 03 Jul 19:17:59 19:23:44 28° 60° (ENE) 19:29:38 435.675
CUSAT 1 03 Jul 19:21:21 19:24:02 84° 266° (W) 19:26:38 437.405
CUBESAT XI-V 03 Jul 19:22:34 19:27:17 76° 284° (WNW) 19:31:55 437.345
COMPASS 1 03 Jul 19:52:13 19:54:37 16° 66° (ENE) 19:57:12 437.405
GOMX 1 03 Jul 19:52:54 19:57:53 50° 73° (ENE) 20:02:36 467.674
STRAND 1 03 Jul 19:52:55 19:58:04 70° 102° (ESE) 20:03:11 437.568
CUTE 1.7 + AOD 2 03 Jul 19:57:49 20:01:20 27° 70° (ENE) 20:04:57 437.475
CINEMA 3 03 Jul 19:59:38 20:02:20 16° 67° (ENE) 20:05:08 145.822/145.860
CANX-2 03 Jul 20:00:47 20:04:31 32° 71° (ENE) 20:08:19 2200.000
PRISM 03 Jul 20:02:22 20:06:36 90° 286° (WNW) 20:10:47 437.425
BRITE-PL 03 Jul 20:11:57 20:17:28 69° 258° (WSW) 20:22:40 437.365/2234.400
DANDE 03 Jul 20:19:16 20:21:16 17° 269° (W) 20:23:05 436.750
AUBIESAT-1 03 Jul 20:39:45 20:41:59 14° 96° (E) 20:44:28 437.475
DOVE 4 03 Jul 20:41:46 20:46:42 85° 257° (WSW) 20:51:22 437.250
GONETS M04 03 Jul 20:46:30 20:55:16 89° 263° (W) 21:03:58
SEEDS 03 Jul 20:46:56 20:51:06 79° 76° (ENE) 20:55:18 437.485
CUBEBUG 2 03 Jul 20:53:23 20:56:59 27° 70° (ENE) 21:00:35 437.445
ZACube-1 03 Jul 21:00:22 21:03:23 20° 68° (ENE) 21:06:30 437.345
AAUSAT CUBESAT 2 03 Jul 21:00:27 21:04:34 76° 76° (ENE) 21:08:44 437.432
HO-68 03 Jul 21:04:00 21:11:03 61° 258° (WSW) 21:18:08 435.675
Oscar 11 03 Jul 21:10:04 21:14:08 43° 72° (ENE) 21:18:15 145.826/435.025
M-CUBED/EXP-1 PRIME 03 Jul 21:11:46 21:15:39 36° 103° (ESE) 21:19:49 437.505
DELFI C3 03 Jul 21:22:47 21:26:31 40° 72° (ENE) 21:30:19 145.870
COMPASS 1 03 Jul 21:25:58 21:29:57 46° 261° (W) 21:33:59 437.405
HUMSAT D 03 Jul 21:27:15 21:29:49 17° 67° (ENE) 21:32:30 437.325/437.525
GOMX 1 03 Jul 21:32:32 21:36:15 19° 268° (W) 21:39:41 467.674
STRAND 1 03 Jul 21:33:38 21:36:45 16° 298° (WNW) 21:39:40 437.568
CUTE 1.7 + AOD 2 03 Jul 21:33:42 21:37:13 25° 266° (W) 21:40:43 437.475
CINEMA 3 03 Jul 21:34:50 21:39:15 49° 261° (W) 21:43:30 145.822/145.860
Cosmos 2499 03 Jul 21:35:13 21:42:34 44° 74° (ENE) 21:50:31 435.465 / 435.565
FUNcube-1 03 Jul 21:35:49 21:39:50 46° 73° (ENE) 21:43:51 145.935
CANX-2 03 Jul 21:37:16 21:40:32 21° 268° (W) 21:43:43 2200.000
UWE-3 03 Jul 21:45:39 21:49:55 82° 77° (ENE) 21:54:08 435.000/436.395/437.385
ESTCUBE 1 03 Jul 21:50:52 21:51:39 11° 61° (ENE) 21:52:43 437.505/2401.250
VELOX 1 03 Jul 22:08:39 22:12:11 24° 68° (ENE) 22:15:49 145.980
AUBIESAT-1 03 Jul 22:12:51 22:16:58 57° 291° (WNW) 22:21:22 437.475
DX 1 03 Jul 22:20:34 22:24:52 58° 73° (ENE) 22:29:11 434.975-435.025
CUBEBUG 2 03 Jul 22:30:02 22:33:40 26° 265° (W) 22:37:10 437.445
ZACube-1 03 Jul 22:35:41 22:39:34 35° 263° (W) 22:43:24 437.345
UKube-1 03 Jul 22:42:46 22:47:07 87° 251° (WSW) 22:51:29 .
GONETS M04 03 Jul 22:45:34 22:51:02 18° 281° (W) 22:55:58
M-CUBED/EXP-1 PRIME 03 Jul 22:46:59 22:50:18 23° 296° (WNW) 22:53:44 437.505
Oscar 11 03 Jul 22:47:45 22:50:34 16° 269° (W) 22:53:16 145.826/435.025
ANTELSAT 03 Jul 22:51:08 22:54:59 30° 96° (E) 22:58:56 437.575/2403.000
AISAT 03 Jul 22:54:24 22:58:52 75° 74° (ENE) 23:03:21 437.250
DELFI C3 03 Jul 22:59:19 23:01:50 16° 269° (W) 23:04:12 145.870
HUMSAT D 03 Jul 23:01:23 23:05:17 41° 262° (W) 23:09:10 437.325/437.525
TIGRISAT 03 Jul 23:03:42 23:07:48 39° 98° (E) 23:11:59 435.000
QB50P1 03 Jul 23:04:41 23:07:19 17° 91° (E) 23:10:05 145.935-145.965
50 SAT 03 Jul 23:08:01 23:11:49 66° 258° (WSW) 23:15:39 437.505
FUNcube-1 03 Jul 23:14:03 23:16:28 14° 270° (W) 23:18:42 145.935
CUBEBUG 1 03 Jul 23:15:00 23:19:24 65° 75° (ENE) 23:23:49 437.445
NANOSAT C BR1 03 Jul 23:18:42 23:22:02 23° 94° (E) 23:25:27 145.865
ESTCUBE 1 03 Jul 23:23:21 23:27:54 87° 255° (WSW) 23:32:29 437.505/2401.250
DUCHIFAT 1 03 Jul 23:25:46 23:29:20 27° 95° (E) 23:32:56 145.980
Cosmos 2499 03 Jul 23:28:32 23:35:41 39° 271° (W) 23:43:11 435.465 / 435.565
POLYITAN 1 03 Jul 23:29:38 23:33:23 31° 96° (E) 23:37:11 437.675
TISAT 1 03 Jul 23:30:50 23:33:45 19° 67° (ENE) 23:36:48 437.305
UNISAT 6 03 Jul 23:42:55 23:47:18 74° 283° (WNW) 23:51:45 437.425
VELOX 1 03 Jul 23:44:33 23:48:36 33° 263° (W) 23:52:38 145.980
BUGSAT 1 03 Jul 23:46:26 23:50:00 29° 96° (E) 23:53:33 437.445
PCSat 03 Jul 23:56:45 00:00:52 22° 44° (NE) 00:05:04 145.827
QB50P2 03 Jul 23:59:10 00:03:23 71° 101° (E) 00:07:35 145.880/145.840
DX 1 03 Jul 23:59:25 00:01:33 13° 271° (W) 00:03:29 434.975-435.025
POPSAT HIP 1 04 Jul 00:00:06 00:04:19 70° 102° (ESE) 00:08:30 437.405
SPROUT 04 Jul 00:20:11 00:24:30 85° 257° (WSW) 00:28:51 437.525
ANTELSAT 04 Jul 00:28:03 00:31:41 25° 291° (WNW) 00:35:18 437.575/2403.000
AISAT 04 Jul 00:35:24 00:36:03 10° 273° (W) 00:36:24 437.250
QB50P1 04 Jul 00:39:27 00:43:25 41° 288° (WNW) 00:47:22 145.935-145.965
TIGRISAT 04 Jul 00:41:07 00:44:20 20° 293° (WNW) 00:47:28 435.000
Cosmos 2491 04 Jul 00:46:25 00:51:00 16° 56° (NE) 00:56:05 435.465 / 435.565
NANOSAT C BR1 04 Jul 00:54:13 00:57:54 29° 290° (WNW) 01:01:30 145.865
CUBEBUG 1 04 Jul 00:54:32 00:56:17 12° 272° (W) 00:57:46 437.445
DUCHIFAT 1 04 Jul 01:01:35 01:05:05 25° 291° (WNW) 01:08:29 145.980
TISAT 1 04 Jul 01:05:17 01:09:17 39° 262° (W) 01:13:16 437.305
POLYITAN 1 04 Jul 01:05:51 01:09:09 22° 292° (WNW) 01:12:22 437.675
SO-50 04 Jul 01:08:02 01:12:29 32° 46° (NE) 01:16:53 436.795
BEESAT 04 Jul 01:09:15 01:13:36 37° 70° (ENE) 01:18:01 436.000
RS-15 04 Jul 01:13:17 01:21:34 27° 104° (ESE) 01:30:27 29.354- 29.394
BUGSAT 1 04 Jul 01:22:09 01:25:20 22° 292° (WNW) 01:28:24 437.445
SWISSCUBE 04 Jul 01:24:21 01:29:02 57° 72° (ENE) 01:33:45 437.505
ITUPSAT 1 04 Jul 01:29:17 01:33:59 58° 72° (ENE) 01:38:43 437.325
QB50P2 04 Jul 01:37:26 01:38:45 11° 297° (WNW) 01:39:53 145.880/145.840
POPSAT HIP 1 04 Jul 01:38:19 01:39:40 11° 297° (WNW) 01:40:50 437.405
PCSat 04 Jul 01:39:25 01:44:48 66° 244° (WSW) 01:50:09 145.827
STARS 04 Jul 01:55:19 01:56:43 12° 62° (ENE) 01:58:20 437.465
Oscar 19 04 Jul 02:24:09 02:29:18 78° 103° (ESE) 02:34:27 437.125/150
Gurwin Techsat 1B 04 Jul 02:24:42 02:28:52 24° 92° (E) 02:33:09 435.225
KKS-1 04 Jul 02:34:41 02:38:58 47° 72° (ENE) 02:43:15 437.445
ITAMSAT 1 04 Jul 02:34:41 02:39:03 27° 94° (E) 02:43:28 435.822/435.867
Cosmos 2491 04 Jul 02:41:00 02:49:47 75° 80° (E) 02:58:30 435.465 / 435.565
BEESAT 04 Jul 02:47:41 02:51:33 24° 267° (W) 02:55:22 436.000
SO-50 04 Jul 02:48:31 02:53:05 37° 244° (WSW) 02:57:31 436.795
AIST 1 04 Jul 02:59:50 03:04:13 72° 81° (E) 03:08:32
SWISSCUBE 04 Jul 03:04:24 03:07:19 15° 270° (W) 03:10:02 437.505
ITUPSAT 1 04 Jul 03:09:24 03:12:19 15° 270° (W) 03:15:01 437.325
YUBILEINY 04 Jul 03:15:15 03:23:33 54° 91° (E) 03:31:57 435.215
RS-15 04 Jul 03:21:55 03:32:52 80° 306° (NW) 03:44:12 29.354- 29.394
STARS 04 Jul 03:28:13 03:32:38 74° 258° (WSW) 03:37:03 437.465
HORYU 2 04 Jul 03:28:43 03:30:03 11° 88° (E) 03:31:39 437.375
JAS-2 04 Jul 03:38:11 03:44:14 37° 96° (E) 03:51:00 435.910
AO-7 04 Jul 03:55:01 04:01:58 29° 94° (E) 04:09:05 29.400- 29.500
Gurwin Techsat 1B 04 Jul 04:04:02 04:09:05 44° 290° (WNW) 04:14:06 435.225
Oscar 19 04 Jul 04:05:22 04:08:06 14° 299° (WNW) 04:10:35 437.125/150
KKS-1 04 Jul 04:13:01 04:15:54 16° 269° (W) 04:18:36 437.445
ITAMSAT 1 04 Jul 04:13:51 04:18:40 38° 291° (WNW) 04:23:25 435.822/435.867
MOZHAYETS 4 04 Jul 04:23:47 04:28:19 68° 75° (ENE) 04:32:54
Cosmos 2491 04 Jul 04:39:21 04:45:51 23° 279° (W) 04:51:56 435.465 / 435.565
CUBESAT XI-V 04 Jul 04:51:48 04:53:41 13° 62° (ENE) 04:55:47 437.345
HORYU 2 04 Jul 05:02:47 05:07:13 68° 286° (WNW) 05:11:40 437.375
YUBILEINY 04 Jul 05:13:03 05:20:49 34° 292° (WNW) 05:28:26 435.215
JAS-2 04 Jul 05:23:13 05:29:20 43° 291° (WNW) 05:36:04 435.910
STRAND 1 04 Jul 05:33:04 05:35:32 14° 61° (ENE) 05:38:14 437.568
RS-15 04 Jul 05:38:01 05:47:27 30° 334° (NNW) 05:57:04 29.354- 29.394
Cosmos 2504 04 Jul 05:43:25 05:50:01 50° 91° (E) 05:56:39 435.465 / 435.565
AO-7 04 Jul 05:47:05 05:55:20 63° 293° (WNW) 06:03:31 29.400- 29.500
MOZHAYETS 4 04 Jul 06:04:18 06:06:08 12° 273° (W) 06:07:41
CUBESAT XI-V 04 Jul 06:25:50 06:30:33 77° 259° (W) 06:35:18 437.345
CUTE-I 04 Jul 06:44:57 06:50:00 41° 97° (E) 06:55:03 437.470
CUSAT 1 04 Jul 06:46:40 06:49:45 15° 92° (E) 06:52:48 437.405
PRISM 04 Jul 06:52:19 06:56:27 68° 75° (ENE) 07:00:38 437.425
O/OREOS (USA 219) 04 Jul 06:58:12 07:01:41 23° 103° (ESE) 07:05:17 437.305
STRAND 1 04 Jul 07:08:59 07:14:08 81° 257° (WSW) 07:19:20 437.568
Cubesat XI-IV 04 Jul 07:18:48 07:24:13 84° 103° (ESE) 07:29:35 437.490
AIST 2 04 Jul 07:25:29 07:26:15 11° 109° (ESE) 07:27:15 435.215
AUBIESAT-1 04 Jul 07:28:40 07:30:30 14° 61° (ENE) 07:32:28 437.475
BEESAT 3 04 Jul 07:32:38 07:36:40 67° 120° (ESE) 07:40:45 437.485
Cosmos 2504 04 Jul 07:36:46 07:42:36 27° 291° (WNW) 07:48:17 435.465 / 435.565
AO-7 04 Jul 07:42:08 07:46:40 15° 313° (NW) 07:50:49 29.400- 29.500
DANDE 04 Jul 07:43:57 07:50:33 38° 95° (E) 07:55:53 436.750
BEESAT 2 04 Jul 07:44:11 07:48:15 70° 121° (ESE) 07:52:23 435.950
ISS 04 Jul 07:49:33 07:52:12 24° 135° (SE) 07:54:54 145.825
GONETS M04 04 Jul 07:54:08 08:00:02 22° 81° (E) 08:06:20
RS-15 04 Jul 07:56:28 08:04:52 23° 8° (N) 08:13:38 29.354- 29.394
GOMX 1 04 Jul 07:57:06 07:58:12 11° 87° (E) 07:59:34 467.674
M-CUBED/EXP-1 PRIME 04 Jul 08:01:06 08:04:13 40° 68° (ENE) 08:07:27 437.505
VERMONT LUNAR 04 Jul 08:16:53 08:19:44 33° 161° (SSE) 08:22:38 437.305
BRITE-PL 04 Jul 08:17:29 08:21:25 34° 96° (E) 08:25:13 437.365/2234.400
CUTE-I 04 Jul 08:25:25 08:29:55 27° 294° (WNW) 08:34:17 437.470
CUSAT 1 04 Jul 08:25:39 08:32:17 76° 279° (W) 08:37:17 437.405
PHONESAT 2.4 04 Jul 08:30:14 08:31:44 13° 148° (SSE) 08:33:20 2401.200-2431.200
HO-68 04 Jul 08:31:56 08:37:40 26° 92° (E) 08:43:34 435.675
PRISM 04 Jul 08:32:02 08:32:26 10° 272° (W) 08:32:34 437.425
SEEDS 04 Jul 08:32:38 08:34:34 13° 89° (E) 08:36:41 437.485
O/OREOS (USA 219) 04 Jul 08:36:54 08:40:58 33° 300° (WNW) 08:45:01 437.305
DOVE 4 04 Jul 08:41:23 08:44:35 22° 93° (E) 08:47:52 437.250
AAUSAT CUBESAT 2 04 Jul 08:45:07 08:46:36 12° 88° (E) 08:48:18 437.432
AIST 2 04 Jul 09:00:01 09:04:16 77° 304° (WNW) 09:08:34 435.215
Cubesat XI-IV 04 Jul 09:00:49 09:03:41 14° 300° (WNW) 09:06:18 437.490
AUBIESAT-1 04 Jul 09:02:00 09:05:01 32° 258° (WSW) 09:08:09 437.475
COMPASS 1 04 Jul 09:09:13 09:12:47 26° 94° (E) 09:16:24 437.405
BEESAT 3 04 Jul 09:12:30 09:15:06 16° 320° (NW) 09:17:35 437.485
CUTE 1.7 + AOD 2 04 Jul 09:17:40 09:21:51 51° 99° (E) 09:26:03 437.475
CANX-2 04 Jul 09:20:55 09:25:11 63° 100° (E) 09:29:27 2200.000
BEESAT 2 04 Jul 09:24:15 09:26:49 15° 320° (NW) 09:29:17 435.950
ISS 04 Jul 09:25:22 09:28:28 42° 332° (NNW) 09:31:35 145.825
DANDE 04 Jul 09:27:13 09:33:44 35° 285° (WNW) 09:38:50 436.750
CINEMA 3 04 Jul 09:29:19 09:33:06 33° 97° (E) 09:36:58 145.822/145.860
GOMX 1 04 Jul 09:32:45 09:36:54 57° 286° (WNW) 09:40:58 467.674
UWE-3 04 Jul 09:36:18 09:38:43 15° 91° (E) 09:41:20 435.000/436.395/437.385
M-CUBED/EXP-1 PRIME 04 Jul 09:38:53 09:39:26 10° 266° (W) 09:39:47 437.505
GONETS M04 04 Jul 09:47:11 09:56:01 80° 279° (W) 10:04:48
ANTELSAT 04 Jul 09:50:48 09:54:24 27° 69° (ENE) 09:58:02 437.575/2403.000
VERMONT LUNAR 04 Jul 09:53:22 09:56:29 70° 177° (S) 09:59:37 437.305
BRITE-PL 04 Jul 09:56:32 09:59:47 20° 294° (WNW) 10:02:49 437.365/2234.400
QB50P1 04 Jul 09:58:28 10:00:39 14° 65° (ENE) 10:03:01 145.935-145.965
TIGRISAT 04 Jul 10:02:59 10:06:52 35° 71° (ENE) 10:10:46 435.000
PHONESAT 2.4 04 Jul 10:05:59 10:09:15 42° 163° (SSE) 10:12:33 2401.200-2431.200
SEEDS 04 Jul 10:06:35 10:10:45 54° 286° (WNW) 10:14:54 437.485
RS-15 04 Jul 10:10:29 10:21:23 45° 40° (NE) 10:32:51 29.354- 29.394
NANOSAT C BR1 04 Jul 10:11:55 10:14:54 19° 67° (ENE) 10:18:00 145.865
Cosmos 2499 04 Jul 10:13:46 10:19:41 31° 87° (E) 10:25:48 435.465 / 435.565
AAUSAT CUBESAT 2 04 Jul 10:18:29 10:22:38 58° 286° (WNW) 10:26:46 437.432
DUCHIFAT 1 04 Jul 10:18:41 10:21:56 22° 68° (ENE) 10:25:15 145.980
DOVE 4 04 Jul 10:18:48 10:22:27 29° 290° (WNW) 10:26:01 437.250
HO-68 04 Jul 10:18:52 10:25:54 60° 291° (WNW) 10:32:53 435.675
CUBEBUG 2 04 Jul 10:19:39 10:23:48 59° 101° (E) 10:28:02 437.445
POLYITAN 1 04 Jul 10:23:06 10:26:35 26° 69° (ENE) 10:30:08 437.675
ZACube-1 04 Jul 10:23:25 10:27:23 39° 98° (E) 10:31:25 437.345
UKube-1 04 Jul 10:31:23 10:33:48 15° 91° (E) 10:36:24 .
Oscar 11 04 Jul 10:32:47 10:37:09 87° 97° (E) 10:41:32 145.826/435.025
DELFI C3 04 Jul 10:36:08 10:40:13 67° 101° (E) 10:44:16 145.870
BUGSAT 1 04 Jul 10:36:53 10:40:13 23° 68° (ENE) 10:43:36 437.445
AIST 2 04 Jul 10:41:49 10:43:38 12° 324° (NW) 10:45:17 435.215
UNISAT 6 04 Jul 10:42:08 10:46:26 81° 257° (WSW) 10:50:43 437.425
COMPASS 1 04 Jul 10:44:49 10:48:24 26° 291° (WNW) 10:51:55 437.405
50 SAT 04 Jul 10:44:50 10:46:43 13° 90° (E) 10:48:47 437.505
HUMSAT D 04 Jul 10:44:59 10:48:35 29° 95° (E) 10:52:16 437.325/437.525
AISAT 04 Jul 10:46:30 10:48:39 14° 89° (E) 10:51:02 437.250
QB50P2 04 Jul 10:52:06 10:56:14 54° 74° (ENE) 11:00:24 145.880/145.840
POPSAT HIP 1 04 Jul 10:52:54 10:57:02 53° 74° (ENE) 11:01:12 437.405
CUTE 1.7 + AOD 2 04 Jul 10:54:52 10:57:24 15° 294° (WNW) 10:59:46 437.475
CANX-2 04 Jul 10:58:41 11:00:39 13° 296° (WNW) 11:02:26 2200.000
FUNcube-1 04 Jul 10:59:33 11:03:47 82° 282° (WNW) 11:08:04 145.935
ISS 04 Jul 11:03:24 11:05:30 16° 351° (N) 11:07:35 145.825
CUBEBUG 1 04 Jul 11:05:55 11:07:18 12° 88° (E) 11:08:57 437.445
CINEMA 3 04 Jul 11:07:02 11:10:09 20° 292° (WNW) 11:13:13 145.822/145.860
UWE-3 04 Jul 11:11:30 11:15:32 45° 287° (WNW) 11:19:37 435.000/436.395/437.385
ESTCUBE 1 04 Jul 11:16:42 11:19:56 19° 92° (E) 11:23:17 437.505/2401.250
ANTELSAT 04 Jul 11:27:32 11:31:10 26° 265° (W) 11:34:43 437.575/2403.000
VERMONT LUNAR 04 Jul 11:30:14 11:33:17 49° 194° (SSW) 11:36:22 437.305
QB50P1 04 Jul 11:31:58 11:36:08 54° 260° (W) 11:40:18 145.935-145.965
VELOX 1 04 Jul 11:34:19 11:38:32 44° 98° (E) 11:42:45 145.980
TIGRISAT 04 Jul 11:40:33 11:43:46 20° 267° (W) 11:46:50 435.000
PHONESAT 2.4 04 Jul 11:43:41 11:47:08 73° 180° (S) 11:50:35 2401.200-2431.200
DX 1 04 Jul 11:44:39 11:49:01 77° 285° (WNW) 11:53:20 434.975-435.025
NANOSAT C BR1 04 Jul 11:46:33 11:50:31 37° 263° (W) 11:54:28 145.865
GONETS M04 04 Jul 11:49:08 11:54:38 17° 303° (WNW) 11:59:37
DUCHIFAT 1 04 Jul 11:53:45 11:57:35 32° 264° (W) 12:01:23 145.980
CUBEBUG 2 04 Jul 11:58:06 12:00:06 13° 295° (WNW) 12:01:56 437.445
POLYITAN 1 04 Jul 11:58:47 12:02:26 27° 265° (W) 12:06:02 437.675
ZACube-1 04 Jul 12:00:31 12:03:31 19° 293° (WNW) 12:06:25 437.345
Oscar 19 04 Jul 12:04:46 12:07:35 15° 62° (ENE) 12:10:36 437.125/150
Cosmos 2499 04 Jul 12:05:54 12:12:37 44° 286° (WNW) 12:19:23 435.465 / 435.565
UKube-1 04 Jul 12:06:05 12:10:16 48° 288° (WNW) 12:14:25 .
SPROUT 04 Jul 12:07:47 12:10:24 16° 91° (E) 12:13:11 437.525
HO-68 04 Jul 12:09:35 12:12:21 12° 310° (NW) 12:14:42 435.675
BUGSAT 1 04 Jul 12:11:47 12:15:34 30° 264° (W) 12:19:16 437.445
DELFI C3 04 Jul 12:13:36 12:14:48 11° 296° (WNW) 12:15:48 145.870
50 SAT 04 Jul 12:17:53 12:21:38 44° 287° (WNW) 12:25:22 437.505
HUMSAT D 04 Jul 12:20:52 12:24:14 24° 291° (WNW) 12:27:34 437.325/437.525
AISAT 04 Jul 12:21:19 12:25:39 54° 287° (WNW) 12:29:56 437.250
RS-15 04 Jul 12:23:01 12:34:36 66° 244° (WSW) 12:46:32 29.354- 29.394
QB50P2 04 Jul 12:30:27 12:32:32 13° 271° (W) 12:34:24 145.880/145.840
POPSAT HIP 1 04 Jul 12:31:10 12:33:18 13° 271° (W) 12:35:13 437.405
CUBEBUG 1 04 Jul 12:39:52 12:44:11 63° 286° (WNW) 12:48:28 437.445
ISS 04 Jul 12:40:38 12:42:49 17° 11° (N) 12:45:03 145.825
TISAT 1 04 Jul 12:49:29 12:53:09 30° 96° (E) 12:56:51 437.305
ESTCUBE 1 04 Jul 12:52:44 12:57:01 41° 289° (WNW) 13:01:14 437.505/2401.250
VERMONT LUNAR 04 Jul 13:07:50 13:09:49 15° 208° (SSW) 13:11:46 437.305
VELOX 1 04 Jul 13:11:42 13:14:48 18° 295° (WNW) 13:17:45 145.980
PHONESAT 2.4 04 Jul 13:21:41 13:25:01 45° 196° (SSW) 13:28:21 2401.200-2431.200
YUBILEINY 04 Jul 13:25:18 13:32:19 27° 65° (ENE) 13:39:36 435.215
SWISSCUBE 04 Jul 13:25:57 13:28:27 14° 89° (E) 13:31:09 437.505
ITUPSAT 1 04 Jul 13:31:08 13:33:41 15° 89° (E) 13:36:28 437.325
Oscar 19 04 Jul 13:41:18 13:46:26 72° 259° (WSW) 13:51:34 437.125/150
SPROUT 04 Jul 13:42:41 13:46:46 43° 288° (WNW) 13:50:48 437.525
Gurwin Techsat 1B 04 Jul 13:45:51 13:50:42 38° 69° (ENE) 13:55:38 435.225
Cosmos 2491 04 Jul 13:50:09 13:54:54 17° 78° (ENE) 14:00:12 435.465 / 435.565
ITAMSAT 1 04 Jul 13:52:43 13:57:36 43° 70° (ENE) 14:02:33 435.822/435.867
JAS-2 04 Jul 13:55:10 13:57:08 12° 58° (ENE) 13:59:26 435.910
ISS 04 Jul 14:16:37 14:19:47 51° 30° (NNE) 14:22:57 145.825
TISAT 1 04 Jul 14:25:26 14:28:49 23° 292° (WNW) 14:32:04 437.305
HORYU 2 04 Jul 14:27:43 14:29:21 12° 62° (ENE) 14:31:13 437.375
RS-15 04 Jul 14:39:36 14:45:14 14° 262° (W) 14:49:46 29.354- 29.394
PCSat 04 Jul 14:40:39 14:43:32 15° 105° (ESE) 14:46:40 145.827
BEESAT 04 Jul 14:46:22 14:51:12 86° 105° (ESE) 14:56:00 436.000
AO-7 04 Jul 14:54:06 15:01:44 43° 62° (ENE) 15:09:29 29.400- 29.500
PHONESAT 2.4 04 Jul 15:00:40 15:02:34 14° 211° (SSW) 15:04:25 2401.200-2431.200
SWISSCUBE 04 Jul 15:02:01 15:06:48 61° 287° (WNW) 15:11:31 437.505
ITUPSAT 1 04 Jul 15:07:17 15:12:04 61° 287° (WNW) 15:16:47 437.325
STARS 04 Jul 15:18:30 15:21:36 19° 92° (E) 15:24:50 437.465
YUBILEINY 04 Jul 15:21:19 15:30:00 68° 266° (W) 15:38:40 435.215
Gurwin Techsat 1B 04 Jul 15:26:16 15:30:48 27° 266° (W) 15:35:16 435.225
AIST 1 04 Jul 15:29:23 15:33:30 42° 93° (E) 15:37:41
Cosmos 2504 04 Jul 15:29:26 15:33:38 16° 62° (ENE) 15:38:25 435.465 / 435.565
ITAMSAT 1 04 Jul 15:33:04 15:37:19 24° 267° (W) 15:41:28 435.822/435.867
JAS-2 04 Jul 15:36:21 15:41:30 86° 253° (WSW) 15:46:57 435.910
Cosmos 2491 04 Jul 15:41:46 15:50:37 85° 96° (E) 15:59:28 435.465 / 435.565
AIST 2 04 Jul 15:44:59 15:46:24 12° 36° (NE) 15:47:56 435.215
BEESAT 3 04 Jul 15:51:02 15:54:56 43° 52° (NE) 15:58:46 437.485
ISS 04 Jul 15:53:36 15:55:58 19° 226° (SW) 15:58:16 145.825
HORYU 2 04 Jul 16:01:05 16:05:29 71° 258° (WSW) 16:09:54 437.375
KKS-1 04 Jul 16:01:45 16:06:12 86° 284° (WNW) 16:10:37 437.445
BEESAT 2 04 Jul 16:03:08 16:07:05 45° 52° (NE) 16:10:59 435.950
MOZHAYETS 4 04 Jul 16:19:51 16:22:40 16° 90° (E) 16:25:38
PCSat 04 Jul 16:20:58 16:26:23 74° 302° (WNW) 16:31:50 145.827
BEESAT 04 Jul 16:26:39 16:28:24 12° 299° (WNW) 16:29:55 436.000
AO-7 04 Jul 16:46:33 16:54:30 46° 261° (W) 17:02:27 29.400- 29.500
STARS 04 Jul 16:54:09 16:58:14 38° 289° (WNW) 17:02:16 437.465
SO-50 04 Jul 17:02:20 17:07:02 70° 121° (ESE) 17:11:54 436.795
Cubesat XI-IV 04 Jul 17:03:11 17:06:51 20° 63° (ENE) 17:10:43 437.490
O/OREOS (USA 219) 04 Jul 17:06:49 17:11:12 48° 63° (ENE) 17:15:37 437.305
AIST 1 04 Jul 17:08:25 17:11:25 17° 291° (WNW) 17:14:18
Cosmos 2504 04 Jul 17:19:32 17:27:03 85° 82° (E) 17:35:09 435.465 / 435.565
AIST 2 04 Jul 17:21:33 17:25:47 75° 56° (NE) 17:29:55 435.215
YUBILEINY 04 Jul 17:22:09 17:25:22 12° 285° (WNW) 17:27:51 435.215
BEESAT 3 04 Jul 17:29:49 17:32:35 18° 248° (WSW) 17:35:13 437.485
BEESAT 2 04 Jul 17:42:08 17:44:50 17° 248° (WSW) 17:47:23 435.950
Cosmos 2491 04 Jul 17:42:18 17:48:49 21° 299° (WNW) 17:54:58 435.465 / 435.565
MOZHAYETS 4 04 Jul 17:55:43 18:00:15 51° 287° (WNW) 18:04:44
CUTE-I 04 Jul 18:06:56 18:12:15 69° 74° (ENE) 18:17:39 437.470
PCSat 04 Jul 18:07:47 18:10:50 15° 322° (NW) 18:13:43 145.827
CUBESAT XI-V 04 Jul 18:22:49 18:26:44 26° 94° (E) 18:30:41 437.345
Cubesat XI-IV 04 Jul 18:41:15 18:46:32 59° 259° (W) 18:51:53 437.490
SO-50 04 Jul 18:44:35 18:48:08 20° 321° (NW) 18:51:40 436.795
O/OREOS (USA 219) 04 Jul 18:47:21 18:50:16 16° 259° (W) 18:53:02 437.305
AIST 2 04 Jul 19:02:57 19:03:47 10° 251° (WSW) 19:04:22 435.215
CUSAT 1 04 Jul 19:03:56 19:06:34 62° 79° (ENE) 19:09:09 437.405
